Quillayute, WA

11:18 PM PDT on June 22, 2017 (GMT -0700)
Quillayute

Weather History for KUIL - July, 2012

Change the Weather History Date:

Tuesday, July 17, 2012

  Actual Average Record
Temperature  
Mean Temperature 57 °F 59 °F  
Max Temperature 61 °F 68 °F 96 °F (1995)
Min Temperature 52 °F 51 °F 40 °F (1988)
Degree Days  
Heating Degree Days 8 6  
Month to date heating degree days 116  
Since 1 June heating degree days 410  
Since 1 July heating degree days 116  
Cooling Degree Days 0 0  
Month to date cooling degree days 0  
Year to date cooling degree days 4  
Since 1 June cooling degree days 3  
Growing Degree Days 6 (Base 50)    
Moisture  
Dew Point 53 °F    
Average Humidity 91    
Maximum Humidity 100    
Minimum Humidity 74    
Precipitation  
Precipitation 0.00 in 0.05 in 0.72 in (1974)
Month to date precipitation 1.20  
Year to date precipitation 53.45  
Sea Level Pressure  
Sea Level Pressure 29.87 in    
Wind  
Wind Speed 5 mph (SSW)    
Max Wind Speed 13 mph    
Max Gust Speed 16 mph    
Visibility 5 miles    
Events Fog    
T = Trace of Precipitation, MM = Missing Value Source: NWS Daily Summary

Daily Weather History Graph

Daily Weather History Graph

Search for Another Location

Airport or City:

Trip Planner

Search our weather history database for the weather conditions in past years. The results will help you decide how hot, cold, wet, or windy it might be!

Date:

Astronomy

Jul. 17, 2012 Rise Set
Actual Time 5:37 AM PDT 9:10 PM PDT
Civil Twilight 4:58 AM PDT 9:49 PM PDT
Nautical Twilight 4:06 AM PDT 10:41 PM PDT
Astronomical Twilight 2:55 AM PDT 11:50 PM PDT
Moon 4:20 AM PDT (7/17) 8:02 PM PDT (7/17)
Length of Visible Light 16h 50m
Length of Day
15h 33m
Waning Crescent, 2% of the Moon is Illuminated
Jul 17
Waning Crescent
Jul 18
New
Jul 26
First Quarter
Aug 1
Full
Aug 9
Last Quarter

Hourly Weather History & Observations

Time (PDT) Temp. Dew Point Humidity Pressure Visibility Wind Dir Wind Speed Gust Speed Precip Events Conditions
12:11 AM 51.8 °F 48.2 °F 88% 29.84 in 10.0 mi Calm Calm - N/A   Partly Cloudy
12:27 AM 51.8 °F 51.8 °F 100% 29.84 in 9.0 mi Calm Calm - N/A   Mostly Cloudy
12:44 AM 51.8 °F 51.8 °F 100% 29.84 in 1.5 mi Calm Calm - N/A   Overcast
12:49 AM 51.8 °F 51.8 °F 100% 29.84 in 0.8 mi Calm Calm - N/A   Overcast
12:53 AM 52.0 °F 51.1 °F 97% 29.84 in 0.5 mi Calm Calm - N/A Fog Fog
1:19 AM 51.8 °F 51.8 °F 100% 29.84 in 0.2 mi Calm Calm - N/A Fog Fog
1:53 AM 52.0 °F 51.1 °F 97% 29.84 in 0.2 mi Calm Calm - N/A Fog Fog
2:53 AM 53.1 °F 51.1 °F 93% 29.83 in 0.2 mi Calm Calm - N/A Fog Fog
3:53 AM 52.0 °F 51.1 °F 97% 29.83 in 0.2 mi Calm Calm - N/A Fog Fog
4:53 AM 52.0 °F 51.1 °F 97% 29.83 in 0.2 mi Calm Calm - N/A Fog Fog
5:38 AM 51.8 °F 51.8 °F 100% 29.83 in 0.5 mi Calm Calm - N/A Fog Fog
5:53 AM 52.0 °F 51.1 °F 97% 29.84 in 0.2 mi Calm Calm - N/A Fog Fog
6:53 AM 52.0 °F 51.1 °F 97% 29.85 in 0.2 mi Calm Calm - N/A Fog Fog
7:02 AM 53.6 °F 51.8 °F 94% 29.85 in 0.5 mi Calm Calm - N/A Fog Fog
7:13 AM 53.6 °F 51.8 °F 94% 29.85 in 0.2 mi Calm Calm - N/A Fog Fog
7:53 AM 53.1 °F 52.0 °F 96% 29.85 in 0.2 mi Calm Calm - N/A Fog Fog
8:28 AM 53.6 °F 53.6 °F 100% 29.85 in 0.5 mi Calm Calm - N/A Fog Fog
8:46 AM 55.4 °F 53.6 °F 94% 29.85 in 1.2 mi Calm Calm - N/A   Overcast
8:53 AM 55.0 °F 53.1 °F 93% 29.86 in 2.0 mi SW 5.8 mph - N/A   Overcast
9:00 AM 55.4 °F 53.6 °F 94% 29.86 in 7.0 mi SSW 4.6 mph - N/A   Overcast
9:53 AM 55.9 °F 54.0 °F 93% 29.86 in 6.0 mi South 3.5 mph - N/A   Overcast
10:53 AM 59.0 °F 54.0 °F 83% 29.86 in 10.0 mi WSW 6.9 mph - N/A   Overcast
11:01 AM 60.8 °F 55.4 °F 82% 29.87 in 10.0 mi SW 6.9 mph - N/A   Overcast
11:53 AM 60.1 °F 54.0 °F 80% 29.87 in 10.0 mi SSW 8.1 mph - N/A   Overcast
12:53 PM 60.1 °F 55.0 °F 83% 29.87 in 10.0 mi SSW 6.9 mph - N/A   Overcast
1:53 PM 60.1 °F 55.0 °F 83% 29.88 in 9.0 mi SSW 9.2 mph - N/A   Overcast
2:53 PM 59.0 °F 55.0 °F 87% 29.88 in 9.0 mi South 9.2 mph - N/A   Overcast
3:53 PM 60.1 °F 55.0 °F 83% 29.89 in 7.0 mi SSW 6.9 mph - N/A   Overcast
4:53 PM 60.1 °F 54.0 °F 80% 29.88 in 10.0 mi Variable 4.6 mph - N/A   Overcast
5:53 PM 59.0 °F 54.0 °F 83% 29.88 in 9.0 mi SSW 5.8 mph - N/A   Overcast
6:53 PM 57.0 °F 53.1 °F 87% 29.89 in 8.0 mi SSW 9.2 mph - N/A   Overcast
7:53 PM 57.0 °F 53.1 °F 87% 29.90 in 5.0 mi South 6.9 mph - N/A   Overcast
8:53 PM 55.9 °F 53.1 °F 90% 29.91 in 5.0 mi Variable 5.8 mph - N/A   Overcast
9:53 PM 55.9 °F 53.1 °F 90% 29.93 in 5.0 mi South 5.8 mph - N/A   Overcast
10:53 PM 55.9 °F 53.1 °F 90% 29.94 in 6.0 mi South 8.1 mph - N/A   Overcast
11:53 PM 55.9 °F 53.1 °F 90% 29.95 in 8.0 mi South 8.1 mph - N/A   Overcast